Retour au catalogue

EXPRESS AM-7

ActifCommunicationsGEO
NORAD 40505·PAYLOAD·🇷🇺 Russia

Lancé Mar 18, 2015 depuis Baikonur Cosmodrome

Loading…

TLE

FraisSource: Space-Track

Époque: Sep 14, 2026, 13:59 UTC

1 40505U 15012A   26257.58307439  .00000143  00000-0  00000-0 0  9992
2 40505   0.0164 109.6717 0003151  67.9573  65.8379  1.00274251 41909

Suivez EXPRESS AM-7 en temps réel avec AllMySat

Download on the App Store